This is the latest recevied weather packets stored in our database for station/object N4RCT. If no packets are shown the sender has not sent any weather packets the latest 1 day(s).
| Time | Temp. | Humidity | Pressure | Rain* | Wind** | Luminosity | Snow |
|---|---|---|---|---|---|---|---|
| 1778042623 | 20.56° C | 64% | 1012.4 hPa | 0 mm | 0 m/s | 0 W/m² | - |
| 1778042320 | 20.56° C | 63% | 1012 hPa | 0 mm | 0 m/s | 0 W/m² | - |
| 1778042017 | 20.56° C | 63% | 1012 hPa | 0 mm | 0 m/s | 0 W/m² | - |
| 1778041715 | 20.56° C | 63% | 1011.6 hPa | 0 mm | 0 m/s | 0 W/m² | - |
| 1778041414 | 20.56° C | 62% | 1011.7 hPa | 0 mm | 0.45 m/s, 67° | 0 W/m² | - |
| 1778041113 | 20.56° C | 63% | 1011.8 hPa | 0 mm | 0 m/s | 0 W/m² | - |
| 1778040809 | 20.56° C | 63% | 1011.9 hPa | 0 mm | 0 m/s | 0 W/m² | - |
| 1778040506 | 20.56° C | 62% | 1012.1 hPa | 0 mm | 0 m/s | 0 W/m² | - |
| 1778040204 | 20.56° C | 62% | 1012 hPa | 0 mm | 0 m/s | 0 W/m² | - |
| 1778039900 | 20.56° C | 62% | 1012 hPa | 0 mm | 0 m/s | 0 W/m² | - |
| 1778039597 | 20.56° C | 63% | 1012 hPa | 0 mm | 0 m/s | 0 W/m² | - |
| 1778039295 | 20.56° C | 63% | 1012.3 hPa | 0 mm | 0 m/s | 0 W/m² | - |
| 1778038992 | 20.56° C | 63% | 1011.8 hPa | 0 mm | 0 m/s | 0 W/m² | - |
| 1778038689 | 20.56° C | 63% | 1011.9 hPa | 0 mm | 0 m/s | 0 W/m² | - |
| 1778038385 | 20.56° C | 63% | 1011.8 hPa | 0 mm | 0 m/s | 0 W/m² | - |
| 1778038082 | 20.56° C | 64% | 1011.7 hPa | 0 mm | 0 m/s | 0 W/m² | - |
| 1778037779 | 20.56° C | 63% | 1011.9 hPa | 0 mm | 0 m/s | 0 W/m² | - |
| 1778037476 | 20.56° C | 65% | 1011.9 hPa | 0 mm | 0 m/s | 0 W/m² | - |
| 1778037173 | 20.56° C | 65% | 1011.9 hPa | 0 mm | 0 m/s | 0 W/m² | - |
| 1778036871 | 20.56° C | 68% | 1012 hPa | 0 mm | 0 m/s | 0 W/m² | - |
| 1778036569 | 20.56° C | 66% | 1012 hPa | 0 mm | 0 m/s | 0 W/m² | - |
| 1778036266 | 20.56° C | 67% | 1012.3 hPa | 0 mm | 0 m/s | 0 W/m² | - |
| 1778035962 | 20.56° C | 67% | 1012.4 hPa | 0 mm | 0 m/s | 0 W/m² | - |
| 1778035659 | 20° C | 66% | 1012.3 hPa | 0 mm | 0 m/s | 0 W/m² | - |
| 1778035355 | 20.56° C | 68% | 1012.3 hPa | 0 mm | 0 m/s | 0 W/m² | - |
* Rain latest hour (hover to see other rain measurements)
** Current wind speed in m/s (hover to see current wind gust speed)